EW4964 Weather Reports


Display with metric or nautical units.
time (UTC)temp
F
wind
direction
speed
MPH
gust
MPH
rain 1hr
in
rain 24hr
in
rain mn
in
humidity
%
barometer
mb
20181114181506 36 30 1.0 3.0 0.00 0.00 0.00 84 1027.8
20181114180006 36 26 1.0 3.0 0.00 0.01 0.00 84 1027.9
20181114174506 36 42 2.0 4.0 0.00 0.01 0.00 84 1027.8
20181114173005 36 35 1.0 4.0 0.00 0.01 0.00 84 1027.7
20181114171506 37 29 2.0 5.0 0.00 0.01 0.00 84 1027.8
20181114170006 37 30 2.0 4.0 0.00 0.01 0.00 84 1027.6
20181114164506 37 19 1.0 4.0 0.00 0.01 0.00 83 1027.5
20181114163005 37 32 1.0 4.0 0.00 0.01 0.00 83 1027.7
20181114161506 37 24 2.0 4.0 0.00 0.01 0.00 83 1027.8
20181114160006 38 32 1.0 3.0 0.00 0.01 0.00 82 1027.6
20181114154505 38 39 1.0 2.0 0.00 0.01 0.00 81 1027.5
20181114153007 38 13 2.0 4.0 0.00 0.01 0.00 81 1027.6
20181114151506 39 38 2.0 3.0 0.00 0.01 0.00 80 1027.4
20181114150006 40 43 1.0 4.0 0.00 0.01 0.00 79 1027.6
20181114144505 40 39 1.0 4.0 0.00 0.01 0.00 78 1027.9
20181114143005 41 55 4.0 7.0 0.00 0.01 0.00 77 1027.9
20181114141505 41 42 3.0 6.0 0.00 0.01 0.00 76 1027.9
20181114140006 42 30 3.0 5.0 0.00 0.01 0.00 75 1027.6
20181114134505 42 29 3.0 7.0 0.00 0.01 0.00 74 1027.7
20181114133005 43 36 4.0 8.0 0.00 0.01 0.00 74 1027.6
20181114131505 43 36 4.0 7.0 0.00 0.01 0.00 70 1027.4
20181114130006 43 15 3.0 8.0 0.00 0.01 0.00 71 1027.4
20181114124506 43 7 3.0 7.0 0.00 0.01 0.00 65 1027.5
20181114123006 43 8 3.0 8.0 0.00 0.01 0.00 64 1027.3
20181114121505 44 29 6.0 11.0 0.00 0.01 0.00 64 1027.4
20181114120005 44 16 7.0 11.0 0.00 0.01 0.00 65 1027.5
20181114114505 44 35 6.0 11.0 0.00 0.01 0.00 68 1027.5
20181114113005 44 348 4.0 11.0 0.00 0.01 0.00 70 1027.8
20181114111505 43 351 2.0 5.0 0.00 0.01 0.00 71 1028.1
20181114110005 43 10 3.0 8.0 0.00 0.01 0.00 75 1028.3
20181114104505 43 36 2.0 7.0 0.00 0.01 0.00 77 1028.1
20181114103005 43 356 2.0 6.0 0.00 0.01 0.00 81 1028.1
20181114101505 42 7 3.0 7.0 0.00 0.01 0.00 82 1028.4
20181114100005 41 12 3.0 8.0 0.00 0.01 0.00 84 1028.5
20181114094505 41 6 3.0 7.0 0.00 0.01 0.00 86 1028.4
20181114093005 41 1 2.0 6.0 0.00 0.01 0.00 91 1028.6
20181114091505 40 355 2.0 7.0 0.00 0.01 0.00 93 1028.4
20181114090005 40 74 1.0 4.0 0.00 0.01 0.00 94 1028.4
20181114084504 40 346 1.0 3.0 0.00 0.01 0.00 95 1028.5
20181114083005 40 13 2.0 4.0 0.00 0.01 0.00 95 1028.3
20181114081505 40 339 1.0 3.0 0.00 0.01 0.00 95 1028.1
20181114080005 39 344 1.0 5.0 0.00 0.01 0.00 95 1028.3
20181114074504 39 320 1.0 4.0 0.00 0.01 0.00 95 1028.2
20181114073005 38 356 1.0 4.0 0.00 0.01 0.00 95 1028.1
20181114071505 38 6 2.0 6.0 0.00 0.01 0.00 95 1028.2
20181114070005 38 328 2.0 6.0 0.00 0.01 0.00 95 1027.9
20181114064504 38 15 2.0 6.0 0.00 0.01 0.00 95 1027.9
20181114063005 38 357 1.0 5.0 0.00 0.01 0.00 95 1028.1
20181114061504 38 2 1.0 3.0 0.00 0.01 0.00 95 1027.8
20181114060005 38 30 1.0 8.0 0.00 0.01 0.00 95 1027.9
20181114054505 38 36 2.0 7.0 0.00 0.01 0.00 96 1028.0
20181114053004 38 13 3.0 10.0 0.00 0.01 0.00 96 1028.0
20181114051504 39 39 3.0 8.0 0.00 0.01 0.00 96 1028.0
20181114050004 39 22 2.0 6.0 0.00 0.01 0.00 97 1027.8
20181114044505 39 359 4.0 10.0 0.00 0.01 0.00 97 1027.8
20181114043004 39 22 5.0 8.0 0.00 0.01 0.00 97 1028.0
20181114041504 39 26 5.0 10.0 0.00 0.01 0.00 98 1027.9
20181114040004 40 6 5.0 11.0 0.00 0.01 0.00 98 1027.8
20181114034503 40 318 2.0 4.0 0.00 0.01 0.00 98 1028.0
20181114033004 40 4 1.0 3.0 0.00 0.01 0.00 98 1027.7
20181114031504 40 317 1.0 4.0 0.00 0.01 0.00 98 1027.5
20181114030004 40 23 2.0 6.0 0.00 0.01 0.00 98 1028.0
20181114024505 40 358 2.0 5.0 0.00 0.01 0.00 98 1027.8
20181114023005 40 10 2.0 7.0 0.00 0.01 0.00 98 1027.6
20181114021504 40 357 2.0 4.0 0.00 0.01 0.00 99 1027.8
20181114020004 40 352 2.0 4.0 0.00 0.01 0.00 99 1027.9
20181114014504 40 11 3.0 6.0 0.00 0.01 0.00 99 1027.9
20181114013004 40 5 3.0 10.0 0.00 0.01 0.00 99 1028.0
20181114010005 40 15 2.0 5.0 0.00 0.01 0.00 99 1027.3
20181114004505 40 17 2.0 8.0 0.00 0.01 0.00 99 1027.2
20181114003005 40 250 2.0 6.0 0.00 0.01 0.00 99 1026.9
20181114001505 41 69 2.0 6.0 0.00 0.01 0.00 99 1027.2
20181114000004 41 13 2.0 6.0 0.00 0.01 0.00 99 1027.0
20181113234505 41 26 3.0 8.0 0.00 0.01 0.00 99 1027.2
20181113233004 41 7 2.0 7.0 0.00 0.01 0.00 99 1027.0
20181113231505 41 237 3.0 8.0 0.00 0.01 0.00 99 1026.7
20181113230007 41 40 3.0 11.0 0.00 0.01 0.00 99 1026.8
20181113224504 41 352 4.0 9.0 0.00 0.01 0.01 99 1027.0
20181113223004 41 302 3.0 10.0 0.00 0.01 0.01 99 1026.9
20181113221507 41 82 4.0 8.0 0.00 0.01 0.01 99 1026.6
20181113220008 41 339 4.0 11.0 0.00 0.01 0.01 99 1026.2
20181113214508 41 324 5.0 14.0 0.00 0.01 0.01 99 1026.3
20181113213007 41 45 5.0 12.0 0.00 0.01 0.01 99 1026.4
20181113211507 41 22 4.0 15.0 0.00 0.01 0.01 99 1026.2
20181113210007 41 44 3.0 9.0 0.00 0.01 0.01 99 1026.6
20181113204507 41 353 3.0 9.0 0.00 0.01 0.01 99 1026.2
20181113203007 42 10 4.0 9.0 0.00 0.01 0.01 99 1026.0
20181113201507 42 48 3.0 8.0 0.00 0.01 0.01 100 1026.1
20181113200007 42 341 2.0 8.0 0.00 0.01 0.01 100 1026.0
20181113194506 43 47 2.0 7.0 0.00 0.01 0.01 100 1025.8
20181113193008 43 226 2.0 6.0 0.00 0.01 0.01 100 1025.7
20181113191507 43 28 3.0 11.0 0.01 0.01 0.01 95 1025.9
20181113190007 43 305 4.0 9.0 0.01 0.01 0.01 95 1025.8
20181113184507 44 8 4.0 8.0 0.01 0.01 0.01 95 1025.6
20181113183007 44 31 4.0 9.0 0.01 0.01 0.01 95 1025.3